ZB2YN-13 Weather Reports


time (UTC)temp
C
wind
direction
speed
KPH
gust
KPH
rain 1hr
cm
rain 24hr
cm
rain mn
cm
humidity
%
barometer
mb
20260507050006 15 161 4.8 11.3 0.00 0.00 0.00 85 1002.1
20260507040005 16 185 0.0 1.6 0.00 0.00 0.00 81 1002.4
20260507030005 15 0.0 0.0 0.00 0.00 0.00 77 1002.5
20260507020006 15 106 1.6 4.8 0.00 0.00 0.00 83 1002.5
20260507010005 15 144 1.6 4.8 0.00 0.00 0.00 81 1002.9
20260507000005 15 158 3.2 6.4 0.00 0.00 0.00 80 1003.0
20260506230005 16 130 0.0 3.2 0.00 0.00 0.00 82 1003.4
20260506220005 16 213 0.0 3.2 0.00 0.00 0.00 78 1003.2
20260506210006 17 121 0.0 4.8 0.00 0.00 0.00 73 1002.7
20260506200005 18 225 1.6 4.8 0.00 0.00 0.00 56 1001.9
20260506190006 20 258 3.2 6.4 0.00 0.00 0.00 54 1001.3
20260506180006 22 260 3.2 9.7 0.00 0.00 0.00 49 1001.1
20260506170005 22 266 3.2 11.3 0.00 0.00 0.00 45 1001.5
20260506160006 22 251 4.8 16.1 0.00 0.00 0.00 47 1001.9
20260506150005 22 202 3.2 6.4 0.00 0.00 0.00 60 1002.4
20260506140005 22 184 6.4 14.5 0.00 0.00 0.00 60 1002.9
20260506130005 21 166 4.8 11.3 0.00 0.00 0.00 65 1003.2
20260506120006 20 155 6.4 11.3 0.00 0.00 0.00 68 1003.7
20260506110005 20 185 4.8 16.1 0.00 0.00 0.00 71 1003.6
20260506100005 19 169 4.8 9.7 0.00 0.00 0.00 71 1003.8
20260506090005 18 185 1.6 6.4 0.00 0.00 0.00 69 1003.8